Stations météo

réclame
Mon MeteoGroup
Kinlochewe, Grande-Bretagne (99092): Température de l'air & dewpoint: 21.02.2020 04:00:00 - 27.02.2020 04:00:00 (GMT)Kinlochewe, Grande-Bretagne (99092): Température de l'air -20cm: 21.02.2020 04:00:00 - 27.02.2020 04:00:00 (GMT)Kinlochewe, Grande-Bretagne (99092): Quantités de précipitations: 21.02.2020 04:00:00 - 27.02.2020 04:00:00 (GMT)
Date & Time tt [°C] td [°C] tt -20cm [°C] rr [mm]
27.02.2020 04:00:00 1,8 -1,8 - 0,0
27.02.2020 03:00:00 0,5 -0,5 - 0,0
27.02.2020 02:00:00 0,8 -0,1 - 0,0
27.02.2020 01:00:00 0,8 0,0 - 0,0
27.02.2020 00:00:00 0,8 -0,2 - 0,0
26.02.2020 23:00:00 0,0 -0,3 - 0,0
26.02.2020 22:00:00 0,3 -0,2 - 0,2
26.02.2020 21:00:00 0,6 0,1 - 0,2
26.02.2020 20:00:00 0,5 -0,5 - 0,2
26.02.2020 19:00:00 2,6 -2,6 - 0,0
26.02.2020 18:00:00 2,7 -2,6 - 0,0
26.02.2020 17:00:00 2,7 -1,2 - 0,0
26.02.2020 16:00:00 3,9 -1,8 - 0,0
26.02.2020 15:00:00 3,3 0,6 - 0,2
26.02.2020 14:00:00 4,9 -1,5 - 0,0
26.02.2020 13:00:00 4,0 -1,7 - 0,0
26.02.2020 12:00:00 3,3 -2,2 - 0,2
26.02.2020 11:00:00 2,0 -0,4 - 0,4
26.02.2020 10:00:00 2,3 1,1 - 1,8
26.02.2020 09:00:00 2,3 0,2 3,7 0,4
26.02.2020 08:00:00 0,3 0,0 - 0,2
26.02.2020 07:00:00 1,4 0,2 - 0,6
26.02.2020 06:00:00 1,6 1,1 - 0,4
26.02.2020 05:00:00 1,4 1,4 - 0,0
26.02.2020 04:00:00 -0,1 -0,2 - 0,0
26.02.2020 03:00:00 0,5 0,3 - 0,2
26.02.2020 02:00:00 1,0 0,7 - 0,0
26.02.2020 01:00:00 0,4 0,3 - 0,0
26.02.2020 00:00:00 0,3 0,2 - 0,0
25.02.2020 23:00:00 0,3 0,1 - 0,4
25.02.2020 22:00:00 0,7 0,4 - 0,0
25.02.2020 21:00:00 0,9 0,5 - 0,0
25.02.2020 20:00:00 1,1 0,7 - 0,0
25.02.2020 19:00:00 0,8 0,5 - 0,0
25.02.2020 18:00:00 1,2 0,9 - 0,0
25.02.2020 17:00:00 1,3 0,8 - 0,0
25.02.2020 16:00:00 1,9 1,4 - 0,4
25.02.2020 15:00:00 2,0 1,1 - 0,2
25.02.2020 14:00:00 4,9 3,2 - 0,2
25.02.2020 13:00:00 3,3 1,4 - 0,6
25.02.2020 12:00:00 4,0 1,3 - 0,0
25.02.2020 11:00:00 3,7 2,0 - 0,2
25.02.2020 10:00:00 2,3 1,8 - 0,2
25.02.2020 09:00:00 0,7 0,6 3,7 0,0
25.02.2020 08:00:00 0,0 -0,2 - 0,0
25.02.2020 07:00:00 0,0 -0,1 - 0,0
25.02.2020 06:00:00 0,1 -0,2 - 0,0
25.02.2020 05:00:00 -0,3 -0,6 - 0,0
25.02.2020 04:00:00 0,1 -0,3 - 0,0
25.02.2020 03:00:00 0,2 -0,3 - 0,0
25.02.2020 02:00:00 0,1 -0,3 - 0,0
25.02.2020 01:00:00 -0,5 -0,9 - 0,0
25.02.2020 00:00:00 -0,7 -1,0 - 0,0
24.02.2020 23:00:00 -0,7 -1,0 - 0,0
24.02.2020 22:00:00 -0,1 -0,3 - 0,0
24.02.2020 21:00:00 0,1 -0,2 - 0,0
24.02.2020 20:00:00 0,8 0,4 - 0,0
24.02.2020 19:00:00 1,4 1,0 - 0,2
24.02.2020 18:00:00 2,1 1,4 - 0,4
24.02.2020 17:00:00 2,6 1,3 - 0,2
24.02.2020 16:00:00 2,6 1,4 - 0,8
24.02.2020 15:00:00 2,7 1,4 - 0,8
24.02.2020 14:00:00 2,6 1,1 - 0,6
24.02.2020 13:00:00 2,3 1,1 - 0,6
24.02.2020 12:00:00 2,3 0,7 - 0,2
24.02.2020 11:00:00 1,9 0,1 - 0,2
24.02.2020 10:00:00 2,5 -0,8 - 0,0
24.02.2020 09:00:00 3,1 -2,0 3,7 0,0
24.02.2020 08:00:00 2,5 -1,8 - 0,0
24.02.2020 07:00:00 1,6 -0,6 - 0,0
24.02.2020 06:00:00 0,7 -0,6 - 0,0
24.02.2020 05:00:00 1,3 -0,6 - 0,0
24.02.2020 04:00:00 1,0 -0,5 - 0,0
24.02.2020 03:00:00 0,6 -0,5 - 0,0
24.02.2020 02:00:00 0,0 -0,6 - 0,0
24.02.2020 01:00:00 0,2 -0,6 - 0,0
24.02.2020 00:00:00 0,0 -0,5 - 0,0
23.02.2020 23:00:00 -0,2 -0,5 - 0,0
23.02.2020 22:00:00 -0,4 -0,7 - 0,0
23.02.2020 21:00:00 -0,2 -0,7 - 0,0
23.02.2020 20:00:00 0,9 0,5 - 0,0
23.02.2020 19:00:00 1,7 1,1 - 0,0
23.02.2020 18:00:00 3,5 2,9 - 0,4
23.02.2020 17:00:00 4,1 3,0 - 1,4
23.02.2020 16:00:00 5,7 2,2 - 1,2
23.02.2020 15:00:00 7,4 3,1 - 0,2
23.02.2020 14:00:00 5,6 2,4 - 0,6
23.02.2020 13:00:00 5,9 2,5 - 0,0
23.02.2020 12:00:00 4,1 2,2 - 1,6
23.02.2020 11:00:00 2,5 1,5 - 1,2
23.02.2020 10:00:00 2,9 1,2 - 2,0
23.02.2020 09:00:00 3,9 0,4 4,0 0,2
23.02.2020 08:00:00 2,8 0,1 - 0,2
23.02.2020 07:00:00 2,8 -0,4 - 0,4
23.02.2020 06:00:00 1,6 0,3 - 2,2
23.02.2020 05:00:00 4,0 -1,5 - 0,0
23.02.2020 04:00:00 4,3 -1,6 - 0,0
23.02.2020 03:00:00 4,3 -1,7 - 0,0
23.02.2020 02:00:00 4,5 -1,4 - 0,0
23.02.2020 01:00:00 4,3 -0,6 - 0,0
23.02.2020 00:00:00 3,7 -0,1 - 0,4
22.02.2020 23:00:00 2,4 0,2 - 3,0
22.02.2020 22:00:00 4,0 -0,3 - 0,6
22.02.2020 21:00:00 5,2 -1,7 - 0,0
22.02.2020 20:00:00 4,5 -0,6 - 1,4
22.02.2020 19:00:00 5,2 -1,3 - 0,2
22.02.2020 18:00:00 4,5 -0,1 - 2,4
22.02.2020 17:00:00 4,3 0,0 - 3,6
22.02.2020 16:00:00 2,7 0,0 - 2,4
22.02.2020 15:00:00 4,2 0,2 - 2,2
22.02.2020 14:00:00 5,4 -0,7 - 0,4
22.02.2020 13:00:00 5,8 -0,8 - 0,2
22.02.2020 12:00:00 4,6 -0,5 - 1,6
22.02.2020 11:00:00 4,4 -1,0 - 2,4
22.02.2020 10:00:00 4,3 -2,3 - 0,2
22.02.2020 09:00:00 3,7 -1,6 4,7 0,2
22.02.2020 08:00:00 3,2 -2,5 - 0,2
22.02.2020 07:00:00 2,7 -1,2 - 2,0
22.02.2020 06:00:00 4,1 -1,1 - 0,0
22.02.2020 05:00:00 2,6 0,2 - 1,2
22.02.2020 04:00:00 4,5 -0,6 - 0,2
22.02.2020 03:00:00 2,9 1,1 - 2,0
22.02.2020 02:00:00 3,6 1,4 - 2,2
22.02.2020 01:00:00 5,1 2,8 - 2,4
22.02.2020 00:00:00 5,5 3,8 - 2,8
21.02.2020 23:00:00 5,8 3,7 - 2,6
21.02.2020 22:00:00 6,9 4,3 - 1,8
21.02.2020 21:00:00 7,5 4,3 - 1,8
21.02.2020 20:00:00 9,3 1,6 - 0,0
21.02.2020 19:00:00 8,5 3,2 - 0,0
21.02.2020 18:00:00 8,3 1,6 - 0,0
21.02.2020 17:00:00 8,8 0,9 - 0,6
21.02.2020 16:00:00 9,2 5,3 - 0,4
21.02.2020 15:00:00 10,4 3,9 - 0,0
21.02.2020 14:00:00 10,3 4,1 - 0,0
21.02.2020 13:00:00 10,2 4,4 - 0,0
21.02.2020 12:00:00 10,3 5,0 - 0,0
21.02.2020 11:00:00 10,0 6,0 - 1,8
21.02.2020 10:00:00 11,1 7,2 - 0,4
21.02.2020 09:00:00 11,2 7,4 4,2 0,4
21.02.2020 08:00:00 10,4 7,4 - 3,0
21.02.2020 07:00:00 8,3 6,8 - 7,4
21.02.2020 06:00:00 7,5 5,6 - 7,4
21.02.2020 05:00:00 7,2 5,4 - 4,8
21.02.2020 04:00:00 6,9 5,1 - 4,4

tt = Température de l'air
td = dewpoint
tt -20cm = Température de l'air -20cm
rr = Quantités de précipitations

stations d'obs. à proximité